Time,TemperatureF,DewpointF,PressureIn,WindDirection,WindDirectionDegrees,WindSpeedMPH,WindSpeedGustMPH,Humidity,HourlyPrecipIn,Conditions,Clouds,dailyrainin,SoftwareType,DateUTC
2013-01-30 00:30:00,30.8,30.0,30.05,NNW,340,0.0,-999.0,95,-99.99,,,0.00,weatherlink.com 1.10,2013-01-30 05:30:00,
2013-01-30 00:45:00,31.0,30.0,30.06,NNW,340,1.0,-999.0,95,-99.99,,,0.00,weatherlink.com 1.10,2013-01-30 05:45:00,
2013-01-30 01:00:00,31.0,30.0,30.05,NNW,340,0.0,-999.0,94,-99.99,,,0.00,weatherlink.com 1.10,2013-01-30 06:00:00,
2013-01-30 01:15:00,31.1,30.0,30.04,NNW,340,0.0,-999.0,95,-99.99,,,0.00,weatherlink.com 1.10,2013-01-30 06:15:00,
2013-01-30 01:30:00,31.5,30.0,30.04,NNW,340,0.0,-999.0,95,-99.99,,,0.00,weatherlink.com 1.10,2013-01-30 06:30:00,
2013-01-30 01:45:00,31.7,31.0,30.04,NNW,340,0.0,-999.0,95,-99.99,,,0.00,weatherlink.com 1.10,2013-01-30 06:45:00,
2013-01-30 02:00:00,32.2,31.0,30.02,NNW,340,0.0,-999.0,96,-99.99,,,0.00,weatherlink.com 1.10,2013-01-30 07:00:00,
2013-01-30 02:15:00,32.3,31.0,30.03,NNW,340,0.0,-999.0,95,-99.99,,,0.00,weatherlink.com 1.10,2013-01-30 07:15:00,
2013-01-30 02:30:00,32.8,32.0,30.02,NNW,340,0.0,-999.0,96,-99.99,,,0.00,weatherlink.com 1.10,2013-01-30 07:30:00,
2013-01-30 02:45:00,33.4,32.0,30.01,NNW,340,2.0,-999.0,96,-99.99,,,0.00,weatherlink.com 1.10,2013-01-30 07:45:00,
2013-01-30 03:00:00,33.6,33.0,30.00,West,265,2.0,-999.0,96,-99.99,,,0.00,weatherlink.com 1.10,2013-01-30 08:00:00,
2013-01-30 03:15:00,33.7,33.0,30.00,WSW,252,3.0,-999.0,96,-99.99,,,0.00,weatherlink.com 1.10,2013-01-30 08:15:00,
2013-01-30 03:30:00,33.5,33.0,30.00,WSW,252,3.0,-999.0,96,-99.99,,,0.00,weatherlink.com 1.10,2013-01-30 08:30:00,
2013-01-30 03:45:00,33.5,33.0,29.99,WSW,252,0.0,-999.0,96,-99.99,,,0.00,weatherlink.com 1.10,2013-01-30 08:45:00,
2013-01-30 04:00:00,33.4,32.0,29.97,WSW,252,0.0,-999.0,96,-99.99,,,0.00,weatherlink.com 1.10,2013-01-30 09:00:00,
2013-01-30 04:15:00,33.2,32.0,29.96,WSW,252,0.0,-999.0,96,-99.99,,,0.00,weatherlink.com 1.10,2013-01-30 09:15:00,
2013-01-30 04:30:00,33.1,32.0,29.95,WSW,252,0.0,-999.0,96,-99.99,,,0.00,weatherlink.com 1.10,2013-01-30 09:30:00,
2013-01-30 04:45:00,33.3,32.0,29.95,WSW,252,0.0,-999.0,96,-99.99,,,0.01,weatherlink.com 1.10,2013-01-30 09:45:00,
2013-01-30 05:00:00,33.3,32.0,29.94,WSW,252,0.0,-999.0,96,-99.99,,,0.01,weatherlink.com 1.10,2013-01-30 10:00:00,
2013-01-30 05:15:00,33.4,32.0,29.94,WSW,252,0.0,-999.0,96,-99.99,,,0.01,weatherlink.com 1.10,2013-01-30 10:15:00,
2013-01-30 05:30:00,33.7,33.0,29.93,WSW,252,0.0,-999.0,97,-99.99,,,0.01,weatherlink.com 1.10,2013-01-30 10:30:00,
2013-01-30 05:45:00,34.0,33.0,29.92,WSW,252,0.0,-999.0,96,-99.99,,,0.02,weatherlink.com 1.10,2013-01-30 10:45:00,
2013-01-30 06:00:00,35.1,34.0,29.92,WSW,248,0.0,-999.0,97,-99.99,,,0.02,weatherlink.com 1.10,2013-01-30 11:00:00,
2013-01-30 06:15:00,37.4,37.0,29.91,WSW,243,2.0,-999.0,97,-99.99,,,0.03,weatherlink.com 1.10,2013-01-30 11:15:00,
2013-01-30 06:30:00,38.6,38.0,29.90,SSW,205,0.0,-999.0,97,-99.99,,,0.04,weatherlink.com 1.10,2013-01-30 11:30:00,
2013-01-30 06:45:00,38.9,38.0,29.89,WSW,254,6.0,-999.0,97,-99.99,,,0.10,weatherlink.com 1.10,2013-01-30 11:45:00,
2013-01-30 07:00:00,39.2,39.0,29.89,WSW,248,0.0,-999.0,97,-99.99,,,0.12,weatherlink.com 1.10,2013-01-30 12:00:00,
2013-01-30 07:15:00,39.6,39.0,29.90,SW,224,3.0,-999.0,97,-99.99,,,0.12,weatherlink.com 1.10,2013-01-30 12:15:00,
2013-01-30 07:30:00,39.7,39.0,29.87,WSW,241,5.0,-999.0,97,-99.99,,,0.12,weatherlink.com 1.10,2013-01-30 12:30:00,
2013-01-30 07:45:00,40.0,39.0,29.87,WSW,245,2.0,-999.0,97,-99.99,,,0.12,weatherlink.com 1.10,2013-01-30 12:45:00,
2013-01-30 08:00:00,40.1,39.0,29.86,WSW,239,2.0,-999.0,97,-99.99,,,0.13,weatherlink.com 1.10,2013-01-30 13:00:00,
2013-01-30 08:15:00,40.1,39.0,29.86,WSW,240,0.0,-999.0,97,-99.99,,,0.13,weatherlink.com 1.10,2013-01-30 13:15:00,
2013-01-30 08:30:00,40.5,40.0,29.85,WSW,242,6.0,-999.0,97,-99.99,,,0.13,weatherlink.com 1.10,2013-01-30 13:30:00,
2013-01-30 08:45:00,40.8,40.0,29.84,WSW,250,3.0,-999.0,97,-99.99,,,0.14,weatherlink.com 1.10,2013-01-30 13:45:00,
2013-01-30 09:00:00,41.1,40.0,29.84,SW,235,2.0,-999.0,97,-99.99,,,0.14,weatherlink.com 1.10,2013-01-30 14:00:00,
2013-01-30 09:15:00,41.7,41.0,29.84,WSW,248,4.0,-999.0,97,-99.99,,,0.15,weatherlink.com 1.10,2013-01-30 14:15:00,
2013-01-30 09:30:00,41.9,41.0,29.82,SW,229,3.0,-999.0,97,-99.99,,,0.15,weatherlink.com 1.10,2013-01-30 14:30:00,
2013-01-30 09:45:00,42.6,42.0,29.81,WSW,240,1.0,-999.0,97,-99.99,,,0.15,weatherlink.com 1.10,2013-01-30 14:45:00,
2013-01-30 10:00:00,43.0,42.0,29.79,WSW,243,5.0,-999.0,97,-99.99,,,0.15,weatherlink.com 1.10,2013-01-30 15:00:00,
2013-01-30 10:15:00,42.9,42.0,29.78,WSW,244,0.0,-999.0,97,-99.99,,,0.15,weatherlink.com 1.10,2013-01-30 15:15:00,
2013-01-30 10:30:00,43.0,42.0,29.77,SW,221,1.0,-999.0,97,-99.99,,,0.16,weatherlink.com 1.10,2013-01-30 15:30:00,
2013-01-30 10:45:00,43.7,43.0,29.75,West,268,2.0,-999.0,97,-99.99,,,0.16,weatherlink.com 1.10,2013-01-30 15:45:00,
2013-01-30 11:00:00,44.2,43.0,29.73,WSW,242,6.0,-999.0,97,-99.99,,,0.16,weatherlink.com 1.10,2013-01-30 16:00:00,
2013-01-30 11:15:00,44.6,44.0,29.72,WSW,242,2.0,-999.0,97,-99.99,,,0.16,weatherlink.com 1.10,2013-01-30 16:15:00,
2013-01-30 11:30:00,45.0,45.0,29.71,SW,227,4.0,-999.0,98,-99.99,,,0.16,weatherlink.com 1.10,2013-01-30 16:30:00,
2013-01-30 11:45:00,45.5,45.0,29.68,WSW,258,5.0,-999.0,97,-99.99,,,0.16,weatherlink.com 1.10,2013-01-30 16:45:00,
2013-01-30 12:00:00,45.7,45.0,29.67,SSW,197,3.0,-999.0,98,-99.99,,,0.16,weatherlink.com 1.10,2013-01-30 17:00:00,
2013-01-30 12:15:00,46.0,45.0,29.66,WSW,244,2.0,-999.0,97,-99.99,,,0.16,weatherlink.com 1.10,2013-01-30 17:15:00,
2013-01-30 12:30:00,46.1,45.0,29.65,West,263,8.0,-999.0,97,-99.99,,,0.16,weatherlink.com 1.10,2013-01-30 17:30:00,
2013-01-30 12:45:00,46.2,46.0,29.64,SW,229,7.0,-999.0,98,-99.99,,,0.16,weatherlink.com 1.10,2013-01-30 17:45:00,
2013-01-30 13:00:00,46.1,46.0,29.62,SSW,213,5.0,-999.0,98,-99.99,,,0.16,weatherlink.com 1.10,2013-01-30 18:00:00,
2013-01-30 13:15:00,46.0,45.0,29.61,SW,228,4.0,-999.0,97,-99.99,,,0.16,weatherlink.com 1.10,2013-01-30 18:15:00,
2013-01-30 13:30:00,46.3,46.0,29.60,SW,234,3.0,-999.0,98,-99.99,,,0.16,weatherlink.com 1.10,2013-01-30 18:30:00,
2013-01-30 13:45:00,46.2,46.0,29.59,WSW,250,7.0,-999.0,98,-99.99,,,0.16,weatherlink.com 1.10,2013-01-30 18:45:00,
2013-01-30 14:00:00,46.0,45.0,29.58,WSW,237,3.0,-999.0,97,-99.99,,,0.16,weatherlink.com 1.10,2013-01-30 19:00:00,
2013-01-30 14:15:00,45.9,45.0,29.57,WSW,237,5.0,-999.0,97,-99.99,,,0.16,weatherlink.com 1.10,2013-01-30 19:15:00,
2013-01-30 14:30:00,46.0,45.0,29.57,WSW,242,3.0,-999.0,97,-99.99,,,0.16,weatherlink.com 1.10,2013-01-30 19:30:00,
2013-01-30 14:45:00,46.5,46.0,29.56,WSW,246,6.0,-999.0,98,-99.99,,,0.16,weatherlink.com 1.10,2013-01-30 19:45:00,
2013-01-30 15:00:00,46.7,46.0,29.56,WSW,242,7.0,-999.0,98,-99.99,,,0.16,weatherlink.com 1.10,2013-01-30 20:00:00,
2013-01-30 15:15:00,46.9,46.0,29.54,WSW,237,5.0,-999.0,98,-99.99,,,0.16,weatherlink.com 1.10,2013-01-30 20:15:00,
2013-01-30 15:30:00,47.0,47.0,29.52,SW,233,7.0,-999.0,98,-99.99,,,0.16,weatherlink.com 1.10,2013-01-30 20:30:00,
2013-01-30 15:45:00,47.5,47.0,29.52,SW,228,8.0,-999.0,98,-99.99,,,0.16,weatherlink.com 1.10,2013-01-30 20:45:00,
2013-01-30 16:00:00,48.1,48.0,29.50,SW,229,5.0,-999.0,98,-99.99,,,0.16,weatherlink.com 1.10,2013-01-30 21:00:00,
2013-01-30 16:15:00,49.2,49.0,29.49,SW,225,11.0,-999.0,98,-99.99,,,0.16,weatherlink.com 1.10,2013-01-30 21:15:00,
2013-01-30 16:30:00,50.3,50.0,29.50,WSW,251,8.0,-999.0,98,-99.99,,,0.16,weatherlink.com 1.10,2013-01-30 21:30:00,
2013-01-30 16:45:00,50.5,50.0,29.50,SW,221,9.0,-999.0,98,-99.99,,,0.16,weatherlink.com 1.10,2013-01-30 21:45:00,
2013-01-30 17:00:00,50.5,50.0,29.49,WSW,244,8.0,-999.0,98,-99.99,,,0.16,weatherlink.com 1.10,2013-01-30 22:00:00,
2013-01-30 17:15:00,50.7,50.0,29.49,SSW,201,14.0,-999.0,98,-99.99,,,0.16,weatherlink.com 1.10,2013-01-30 22:15:00,
2013-01-30 17:30:00,50.4,50.0,29.50,WSW,250,13.0,-999.0,98,-99.99,,,0.17,weatherlink.com 1.10,2013-01-30 22:30:00,
2013-01-30 17:45:00,50.1,50.0,29.50,WSW,244,11.0,-999.0,98,-99.99,,,0.20,weatherlink.com 1.10,2013-01-30 22:45:00,
2013-01-30 18:00:00,50.1,50.0,29.50,WSW,255,11.0,-999.0,98,-99.99,,,0.26,weatherlink.com 1.10,2013-01-30 23:00:00,
2013-01-30 18:15:00,49.7,49.0,29.49,WSW,244,5.0,-999.0,97,-99.99,,,0.29,weatherlink.com 1.10,2013-01-30 23:15:00,
2013-01-30 18:30:00,49.6,49.0,29.48,SW,229,4.0,-999.0,98,-99.99,,,0.30,weatherlink.com 1.10,2013-01-30 23:30:00,
2013-01-30 18:45:00,49.8,49.0,29.48,SW,232,5.0,-999.0,98,-99.99,,,0.30,weatherlink.com 1.10,2013-01-30 23:45:00,
2013-01-30 19:00:00,49.6,49.0,29.48,WSW,241,10.0,-999.0,98,-99.99,,,0.30,weatherlink.com 1.10,2013-01-31 00:00:00,
2013-01-30 19:15:00,49.9,49.0,29.48,West,260,8.0,-999.0,98,-99.99,,,0.30,weatherlink.com 1.10,2013-01-31 00:15:00,
2013-01-30 19:30:00,50.1,50.0,29.47,WSW,242,10.0,-999.0,98,-99.99,,,0.30,weatherlink.com 1.10,2013-01-31 00:30:00,
2013-01-30 20:00:00,50.3,50.0,29.45,WSW,238,5.0,-999.0,98,-99.99,,,0.33,weatherlink.com 1.10,2013-01-31 01:00:00,
2013-01-30 20:15:00,50.6,50.0,29.45,WSW,244,11.0,-999.0,98,-99.99,,,0.33,weatherlink.com 1.10,2013-01-31 01:15:00,
2013-01-30 20:30:00,50.8,50.0,29.45,WSW,242,11.0,-999.0,98,-99.99,,,0.33,weatherlink.com 1.10,2013-01-31 01:30:00,
2013-01-30 20:45:00,50.9,50.0,29.44,South,190,11.0,-999.0,98,-99.99,,,0.33,weatherlink.com 1.10,2013-01-31 01:45:00,
2013-01-30 21:00:00,51.2,51.0,29.43,SSW,203,2.0,-999.0,98,-99.99,,,0.33,weatherlink.com 1.10,2013-01-31 02:00:00,
2013-01-30 21:15:00,51.6,51.0,29.42,SW,226,4.0,-999.0,98,-99.99,,,0.33,weatherlink.com 1.10,2013-01-31 02:15:00,
2013-01-30 21:30:00,51.5,51.0,29.42,WSW,250,7.0,-999.0,98,-99.99,,,0.33,weatherlink.com 1.10,2013-01-31 02:30:00,
2013-01-30 21:45:00,51.2,50.0,29.41,SW,226,11.0,-999.0,97,-99.99,,,0.33,weatherlink.com 1.10,2013-01-31 02:45:00,
2013-01-30 22:00:00,51.4,51.0,29.40,WSW,238,6.0,-999.0,97,-99.99,,,0.33,weatherlink.com 1.10,2013-01-31 03:00:00,
2013-01-30 22:15:00,51.4,51.0,29.40,WSW,240,11.0,-999.0,97,-99.99,,,0.33,weatherlink.com 1.10,2013-01-31 03:15:00,
2013-01-30 22:30:00,51.5,51.0,29.38,SW,226,10.0,-999.0,97,-99.99,,,0.33,weatherlink.com 1.10,2013-01-31 03:30:00,
2013-01-30 22:45:00,51.5,51.0,29.39,SSE,161,10.0,-999.0,98,-99.99,,,0.33,weatherlink.com 1.10,2013-01-31 03:45:00,
2013-01-30 23:00:00,51.4,51.0,29.38,WSW,252,18.0,-999.0,97,-99.99,,,0.33,weatherlink.com 1.10,2013-01-31 04:00:00,
2013-01-30 23:15:00,51.2,50.0,29.38,West,259,8.0,-999.0,97,-99.99,,,0.33,weatherlink.com 1.10,2013-01-31 04:15:00,
2013-01-30 23:30:00,51.1,51.0,29.36,SW,217,16.0,-999.0,98,-99.99,,,0.33,weatherlink.com 1.10,2013-01-31 04:30:00,
2013-01-30 23:45:00,50.9,50.0,29.37,SW,234,12.0,-999.0,98,-99.99,,,0.33,weatherlink.com 1.10,2013-01-31 04:45:00,